Wetterdaten: Mittwoch, 14.11.2012
Datum Zeit Temp. Auen Feucht Auen Luftdruck Regen Richtung Richtung Windben
14.11.2012 00:00 6,7 C 94 % 1030,8 hPa 0,0 mm O-NO 74 11,3 km/h (2 Bft)
14.11.2012 00:05 6,7 C 94 % 1030,7 hPa 0,0 mm O-NO 67 9,7 km/h (2 Bft)
14.11.2012 00:10 6,7 C 94 % 1030,8 hPa 0,0 mm O 101 11,3 km/h (2 Bft)
14.11.2012 00:15 6,7 C 94 % 1030,7 hPa 0,0 mm O 83 9,7 km/h (2 Bft)
14.11.2012 00:20 6,7 C 94 % 1030,6 hPa 0,0 mm O-NO 69 9,7 km/h (2 Bft)
14.11.2012 00:25 6,6 C 94 % 1030,6 hPa 0,0 mm O 85 9,7 km/h (2 Bft)
14.11.2012 00:30 6,6 C 94 % 1030,6 hPa 0,0 mm O 92 11,3 km/h (2 Bft)
14.11.2012 00:35 6,6 C 94 % 1030,6 hPa 0,0 mm O 87 9,7 km/h (2 Bft)
14.11.2012 00:40 6,6 C 94 % 1030,6 hPa 0,0 mm O 87 9,7 km/h (2 Bft)
14.11.2012 00:45 6,6 C 94 % 1030,5 hPa 0,0 mm O-NO 71 11,3 km/h (2 Bft)
14.11.2012 00:50 6,6 C 94 % 1030,5 hPa 0,0 mm NO 54 9,7 km/h (2 Bft)
14.11.2012 00:55 6,6 C 94 % 1030,4 hPa 0,0 mm O 94 9,7 km/h (2 Bft)
14.11.2012 01:00 6,5 C 94 % 1030,4 hPa 0,0 mm O 86 11,3 km/h (2 Bft)
14.11.2012 01:05 6,5 C 94 % 1030,4 hPa 0,0 mm O-NO 66 11,3 km/h (2 Bft)
14.11.2012 01:10 6,5 C 94 % 1030,4 hPa 0,0 mm O-SO 117 11,3 km/h (2 Bft)
14.11.2012 01:15 6,5 C 94 % 1030,3 hPa 0,0 mm O 98 11,3 km/h (2 Bft)
14.11.2012 01:20 6,5 C 94 % 1030,3 hPa 0,0 mm O 94 11,3 km/h (2 Bft)
14.11.2012 01:25 6,5 C 94 % 1030,3 hPa 0,0 mm O 94 8,0 km/h (2 Bft)
14.11.2012 01:30 6,5 C 94 % 1030,4 hPa 0,0 mm O 97 9,7 km/h (2 Bft)
14.11.2012 01:35 6,5 C 94 % 1030,4 hPa 0,0 mm O 86 9,7 km/h (2 Bft)
14.11.2012 01:40 6,4 C 94 % 1030,4 hPa 0,0 mm O 86 8,0 km/h (2 Bft)
14.11.2012 01:45 6,4 C 94 % 1030,4 hPa 0,0 mm O 86 8,0 km/h (2 Bft)
14.11.2012 01:50 6,4 C 94 % 1030,4 hPa 0,0 mm O-SO 105 8,0 km/h (2 Bft)
14.11.2012 01:55 6,4 C 94 % 1030,4 hPa 0,0 mm O-NO 78 11,3 km/h (2 Bft)
14.11.2012 02:00 6,4 C 94 % 1030,4 hPa 0,0 mm O-SO 102 9,7 km/h (2 Bft)
14.11.2012 02:05 6,3 C 94 % 1030,4 hPa 0,0 mm O 88 9,7 km/h (2 Bft)
14.11.2012 02:10 6,3 C 94 % 1030,4 hPa 0,0 mm O-NO 67 9,7 km/h (2 Bft)
14.11.2012 02:15 6,4 C 94 % 1030,4 hPa 0,0 mm O-NO 76 9,7 km/h (2 Bft)
14.11.2012 02:20 6,3 C 94 % 1030,3 hPa 0,0 mm O-SO 110 9,7 km/h (2 Bft)
14.11.2012 02:25 6,3 C 94 % 1030,3 hPa 0,0 mm O 92 8,0 km/h (2 Bft)
14.11.2012 02:30 6,3 C 94 % 1030,3 hPa 0,0 mm O-SO 108 9,7 km/h (2 Bft)
14.11.2012 02:35 6,3 C 94 % 1030,3 hPa 0,0 mm O 90 11,3 km/h (2 Bft)
14.11.2012 02:40 6,4 C 94 % 1030,3 hPa 0,0 mm O 99 11,3 km/h (2 Bft)
14.11.2012 02:45 6,4 C 94 % 1030,2 hPa 0,0 mm O-SO 109 8,0 km/h (2 Bft)
14.11.2012 02:50 6,4 C 94 % 1030,4 hPa 0,0 mm O 92 9,7 km/h (2 Bft)
14.11.2012 02:55 6,4 C 94 % 1030,3 hPa 0,0 mm O 98 9,7 km/h (2 Bft)
14.11.2012 03:00 6,4 C 94 % 1030,3 hPa 0,0 mm O-NO 75 8,0 km/h (2 Bft)
14.11.2012 03:05 6,4 C 94 % 1030,3 hPa 0,0 mm O 88 8,0 km/h (2 Bft)
14.11.2012 03:10 6,4 C 94 % 1030,3 hPa 0,0 mm O-SO 108 9,7 km/h (2 Bft)
14.11.2012 03:15 6,4 C 94 % 1030,2 hPa 0,0 mm O-SO 107 8,0 km/h (2 Bft)
14.11.2012 03:20 6,4 C 94 % 1030,1 hPa 0,0 mm O 98 8,0 km/h (2 Bft)
14.11.2012 03:25 6,3 C 94 % 1030,1 hPa 0,0 mm O 83 4,8 km/h (1 Bft)
14.11.2012 03:30 6,3 C 94 % 1030,0 hPa 0,0 mm O 92 4,8 km/h (1 Bft)
14.11.2012 03:35 6,3 C 94 % 1030,0 hPa 0,0 mm O 97 6,4 km/h (2 Bft)
14.11.2012 03:40 6,4 C 94 % 1030,1 hPa 0,0 mm O-SO 106 8,0 km/h (2 Bft)
14.11.2012 03:45 6,4 C 94 % 1030,0 hPa 0,0 mm O 98 8,0 km/h (2 Bft)
14.11.2012 03:50 6,4 C 94 % 1029,9 hPa 0,0 mm O-SO 104 8,0 km/h (2 Bft)
14.11.2012 03:55 6,4 C 94 % 1029,9 hPa 0,0 mm O-NO 78 8,0 km/h (2 Bft)
14.11.2012 04:00 6,4 C 94 % 1029,9 hPa 0,0 mm O 88 9,7 km/h (2 Bft)
14.11.2012 04:05 6,4 C 94 % 1029,7 hPa 0,0 mm O 90 9,7 km/h (2 Bft)
14.11.2012 04:10 6,4 C 94 % 1029,7 hPa 0,0 mm O 100 8,0 km/h (2 Bft)
14.11.2012 04:15 6,4 C 94 % 1029,8 hPa 0,0 mm O 93 9,7 km/h (2 Bft)
14.11.2012 04:20 6,4 C 93 % 1029,7 hPa 0,0 mm O 80 8,0 km/h (2 Bft)
14.11.2012 04:25 6,4 C 93 % 1029,7 hPa 0,0 mm O-NO 69 8,0 km/h (2 Bft)
14.11.2012 04:30 6,4 C 93 % 1029,7 hPa 0,0 mm O 94 9,7 km/h (2 Bft)
14.11.2012 04:35 6,4 C 93 % 1029,8 hPa 0,0 mm O-NO 58 8,0 km/h (2 Bft)
14.11.2012 04:40 6,4 C 93 % 1029,7 hPa 0,0 mm O 98 8,0 km/h (2 Bft)
14.11.2012 04:45 6,4 C 93 % 1029,7 hPa 0,0 mm NO 34 4,8 km/h (1 Bft)
14.11.2012 04:50 6,4 C 93 % 1029,6 hPa 0,0 mm O 84 8,0 km/h (2 Bft)
14.11.2012 04:55 6,4 C 93 % 1029,7 hPa 0,0 mm O 85 9,7 km/h (2 Bft)
14.11.2012 05:00 6,4 C 93 % 1029,6 hPa 0,0 mm O 80 8,0 km/h (2 Bft)
14.11.2012 05:05 6,4 C 93 % 1029,6 hPa 0,0 mm O 79 8,0 km/h (2 Bft)
14.11.2012 05:10 6,4 C 93 % 1029,5 hPa 0,0 mm O-NO 62 8,0 km/h (2 Bft)
14.11.2012 05:15 6,4 C 93 % 1029,5 hPa 0,0 mm O-NO 75 9,7 km/h (2 Bft)
14.11.2012 05:20 6,4 C 93 % 1029,5 hPa 0,0 mm O-SO 110 8,0 km/h (2 Bft)
14.11.2012 05:25 6,4 C 93 % 1029,5 hPa 0,0 mm O 83 8,0 km/h (2 Bft)
14.11.2012 05:30 6,4 C 93 % 1029,6 hPa 0,0 mm O 83 8,0 km/h (2 Bft)
14.11.2012 05:35 6,4 C 93 % 1029,6 hPa 0,0 mm O 81 8,0 km/h (2 Bft)
14.11.2012 05:40 6,4 C 93 % 1029,6 hPa 0,0 mm O 80 8,0 km/h (2 Bft)
14.11.2012 05:45 6,4 C 93 % 1029,6 hPa 0,0 mm O 96 9,7 km/h (2 Bft)
14.11.2012 05:50 6,4 C 93 % 1029,6 hPa 0,0 mm O-SO 117 8,0 km/h (2 Bft)
14.11.2012 05:55 6,3 C 93 % 1029,6 hPa 0,0 mm O-NO 61 8,0 km/h (2 Bft)
14.11.2012 06:00 6,3 C 93 % 1029,5 hPa 0,0 mm O-NO 64 6,4 km/h (2 Bft)
14.11.2012 06:05 6,3 C 93 % 1029,5 hPa 0,0 mm O-NO 71 3,2 km/h (1 Bft)
14.11.2012 06:10 6,3 C 93 % 1029,5 hPa 0,0 mm O-NO 70 1,6 km/h (1 Bft)
14.11.2012 06:15 6,2 C 93 % 1029,5 hPa 0,0 mm O-NO 68 3,2 km/h (1 Bft)
14.11.2012 06:20 6,2 C 93 % 1029,6 hPa 0,0 mm NO 44 4,8 km/h (1 Bft)
14.11.2012 06:25 6,2 C 93 % 1029,7 hPa 0,0 mm NO 44 4,8 km/h (1 Bft)
14.11.2012 06:30 6,2 C 93 % 1029,6 hPa 0,0 mm O 101 4,8 km/h (1 Bft)
14.11.2012 06:35 6,2 C 93 % 1029,5 hPa 0,0 mm O-NO 74 3,2 km/h (1 Bft)
14.11.2012 06:40 6,2 C 94 % 1029,5 hPa 0,0 mm O-NO 74 3,2 km/h (1 Bft)
14.11.2012 06:45 6,2 C 94 % 1029,4 hPa 0,0 mm O-NO 74 3,2 km/h (1 Bft)
14.11.2012 06:50 6,2 C 94 % 1029,4 hPa 0,0 mm NO 53 3,2 km/h (1 Bft)
14.11.2012 06:55 6,2 C 94 % 1029,5 hPa 0,0 mm NO 55 3,2 km/h (1 Bft)
14.11.2012 07:00 6,2 C 94 % 1029,5 hPa 0,0 mm O-SO 108 3,2 km/h (1 Bft)
14.11.2012 07:05 6,2 C 94 % 1029,7 hPa 0,0 mm O-SO 119 4,8 km/h (1 Bft)
14.11.2012 07:10 6,3 C 93 % 1029,7 hPa 0,0 mm O-SO 114 4,8 km/h (1 Bft)
14.11.2012 07:15 6,3 C 93 % 1029,7 hPa 0,0 mm O-SO 117 4,8 km/h (1 Bft)
14.11.2012 07:20 6,3 C 93 % 1029,8 hPa 0,0 mm O 93 4,8 km/h (1 Bft)
14.11.2012 07:25 6,3 C 93 % 1029,7 hPa 0,0 mm O 101 3,2 km/h (1 Bft)
14.11.2012 07:30 6,3 C 93 % 1029,8 hPa 0,0 mm SO 126 4,8 km/h (1 Bft)
14.11.2012 07:35 6,3 C 93 % 1029,7 hPa 0,0 mm O-SO 114 3,2 km/h (1 Bft)
14.11.2012 07:40 6,3 C 93 % 1029,8 hPa 0,0 mm O 97 4,8 km/h (1 Bft)
14.11.2012 07:45 6,3 C 93 % 1029,8 hPa 0,0 mm O-SO 117 4,8 km/h (1 Bft)
14.11.2012 07:50 6,3 C 93 % 1029,8 hPa 0,0 mm O 92 4,8 km/h (1 Bft)
14.11.2012 07:55 6,4 C 93 % 1029,8 hPa 0,0 mm O-SO 123 4,8 km/h (1 Bft)
14.11.2012 08:00 6,4 C 93 % 1029,9 hPa 0,0 mm O-NO 78 4,8 km/h (1 Bft)
14.11.2012 08:05 6,4 C 93 % 1029,9 hPa 0,0 mm NO 47 6,4 km/h (2 Bft)
14.11.2012 08:10 6,5 C 93 % 1029,9 hPa 0,0 mm O 92 8,0 km/h (2 Bft)
14.11.2012 08:15 6,5 C 93 % 1029,9 hPa 0,0 mm O 92 8,0 km/h (2 Bft)
14.11.2012 08:20 6,6 C 93 % 1029,9 hPa 0,0 mm O 79 11,3 km/h (2 Bft)
14.11.2012 08:25 6,5 C 93 % 1029,8 hPa 0,0 mm NO 53 11,3 km/h (2 Bft)
14.11.2012 08:30 6,4 C 93 % 1029,8 hPa 0,0 mm O-SO 115 11,3 km/h (2 Bft)
14.11.2012 08:35 6,4 C 93 % 1029,8 hPa 0,0 mm O-NO 74 9,7 km/h (2 Bft)
14.11.2012 08:40 6,5 C 93 % 1029,8 hPa 0,0 mm O-NO 67 8,0 km/h (2 Bft)
14.11.2012 08:45 6,4 C 93 % 1029,8 hPa 0,0 mm O 88 8,0 km/h (2 Bft)
14.11.2012 08:50 6,4 C 92 % 1029,8 hPa 0,0 mm O-SO 104 8,0 km/h (2 Bft)
14.11.2012 08:55 6,4 C 92 % 1029,8 hPa 0,0 mm SO 126 8,0 km/h (2 Bft)
14.11.2012 09:00 6,4 C 92 % 1029,8 hPa 0,0 mm SO 130 8,0 km/h (2 Bft)
14.11.2012 09:05 6,4 C 92 % 1029,8 hPa 0,0 mm O-SO 113 8,0 km/h (2 Bft)
14.11.2012 09:10 6,4 C 92 % 1029,8 hPa 0,0 mm O 86 8,0 km/h (2 Bft)
14.11.2012 09:15 6,5 C 92 % 1029,8 hPa 0,0 mm SO 128 8,0 km/h (2 Bft)
14.11.2012 09:20 6,5 C 92 % 1029,8 hPa 0,0 mm O-SO 113 6,4 km/h (2 Bft)
14.11.2012 09:25 6,6 C 92 % 1029,7 hPa 0,0 mm O-SO 121 8,0 km/h (2 Bft)
14.11.2012 09:30 6,6 C 92 % 1029,7 hPa 0,0 mm O-NO 75 8,0 km/h (2 Bft)
14.11.2012 09:35 6,7 C 92 % 1029,7 hPa 0,0 mm O-SO 115 8,0 km/h (2 Bft)
14.11.2012 09:40 6,7 C 92 % 1029,6 hPa 0,0 mm O 95 8,0 km/h (2 Bft)
14.11.2012 09:45 6,8 C 92 % 1029,5 hPa 0,0 mm O 80 11,3 km/h (2 Bft)
14.11.2012 09:50 6,8 C 92 % 1029,6 hPa 0,0 mm O 98 11,3 km/h (2 Bft)
14.11.2012 09:55 6,8 C 92 % 1029,6 hPa 0,0 mm NO 49 11,3 km/h (2 Bft)
14.11.2012 10:00 6,8 C 92 % 1029,6 hPa 0,0 mm O 101 9,7 km/h (2 Bft)
14.11.2012 10:05 6,8 C 92 % 1029,6 hPa 0,0 mm O 100 11,3 km/h (2 Bft)
14.11.2012 10:10 6,8 C 92 % 1029,6 hPa 0,0 mm O-NO 67 11,3 km/h (2 Bft)
14.11.2012 10:15 6,7 C 91 % 1029,5 hPa 0,0 mm O-NO 68 11,3 km/h (2 Bft)
14.11.2012 10:20 6,7 C 91 % 1029,5 hPa 0,0 mm O 96 8,0 km/h (2 Bft)
14.11.2012 10:25 6,8 C 92 % 1029,5 hPa 0,0 mm O-SO 111 9,7 km/h (2 Bft)
14.11.2012 10:30 6,8 C 91 % 1029,5 hPa 0,0 mm O 82 12,9 km/h (3 Bft)
14.11.2012 10:35 6,8 C 91 % 1029,5 hPa 0,0 mm O 97 12,9 km/h (3 Bft)
14.11.2012 10:40 6,8 C 91 % 1029,5 hPa 0,2 mm O-NO 75 12,9 km/h (3 Bft)
14.11.2012 10:45 6,8 C 91 % 1029,4 hPa 0,0 mm O 90 12,9 km/h (3 Bft)
14.11.2012 10:50 6,8 C 91 % 1029,4 hPa 0,0 mm NO 56 12,9 km/h (3 Bft)
14.11.2012 10:55 6,8 C 91 % 1029,3 hPa 0,0 mm O 85 12,9 km/h (3 Bft)
14.11.2012 11:00 6,8 C 91 % 1029,2 hPa 0,0 mm O-SO 108 11,3 km/h (2 Bft)
14.11.2012 11:05 6,8 C 91 % 1029,2 hPa 0,0 mm O-SO 115 11,3 km/h (2 Bft)
14.11.2012 11:10 6,8 C 91 % 1029,2 hPa 0,0 mm O-NO 69 12,9 km/h (3 Bft)
14.11.2012 11:15 6,8 C 91 % 1029,0 hPa 0,0 mm O 91 12,9 km/h (3 Bft)
14.11.2012 11:20 7,0 C 92 % 1029,1 hPa 0,0 mm O 91 14,5 km/h (3 Bft)
14.11.2012 11:25 7,0 C 91 % 1029,0 hPa 0,0 mm O 92 11,3 km/h (2 Bft)
14.11.2012 11:30 7,0 C 91 % 1028,9 hPa 0,0 mm O 81 12,9 km/h (3 Bft)
14.11.2012 11:35 7,0 C 91 % 1028,9 hPa 0,0 mm O 86 14,5 km/h (3 Bft)
14.11.2012 11:40 7,1 C 91 % 1028,8 hPa 0,0 mm O-SO 105 11,3 km/h (2 Bft)
14.11.2012 11:45 7,1 C 91 % 1028,7 hPa 0,0 mm O-SO 116 14,5 km/h (3 Bft)
14.11.2012 11:50 7,1 C 91 % 1028,7 hPa 0,0 mm O-SO 120 12,9 km/h (3 Bft)
14.11.2012 11:55 7,1 C 90 % 1028,6 hPa 0,0 mm SO 128 14,5 km/h (3 Bft)
14.11.2012 12:00 7,1 C 91 % 1028,5 hPa 0,0 mm O-NO 73 12,9 km/h (3 Bft)
14.11.2012 12:05 7,1 C 91 % 1028,5 hPa 0,0 mm O 93 12,9 km/h (3 Bft)
14.11.2012 12:10 7,1 C 91 % 1028,4 hPa 0,0 mm O-SO 117 11,3 km/h (2 Bft)
14.11.2012 12:15 7,0 C 91 % 1028,4 hPa 0,0 mm O-SO 103 11,3 km/h (2 Bft)
14.11.2012 12:20 7,1 C 91 % 1028,3 hPa 0,0 mm NO 52 11,3 km/h (2 Bft)
14.11.2012 12:25 7,1 C 90 % 1028,3 hPa 0,0 mm O 80 12,9 km/h (3 Bft)
14.11.2012 12:30 7,1 C 91 % 1028,2 hPa 0,0 mm O-SO 116 14,5 km/h (3 Bft)
14.11.2012 12:35 7,1 C 91 % 1028,3 hPa 0,0 mm O-SO 118 11,3 km/h (2 Bft)
14.11.2012 12:40 7,1 C 91 % 1028,1 hPa 0,0 mm SO 128 11,3 km/h (2 Bft)
14.11.2012 12:45 7,2 C 91 % 1028,1 hPa 0,0 mm O 82 11,3 km/h (2 Bft)
14.11.2012 12:50 7,2 C 91 % 1028,0 hPa 0,0 mm O-SO 113 12,9 km/h (3 Bft)
14.11.2012 12:55 7,3 C 91 % 1028,0 hPa 0,0 mm O-NO 78 12,9 km/h (3 Bft)
14.11.2012 13:00 7,3 C 90 % 1027,9 hPa 0,0 mm O-NO 77 14,5 km/h (3 Bft)
14.11.2012 13:05 7,2 C 90 % 1027,9 hPa 0,0 mm NO 52 12,9 km/h (3 Bft)
14.11.2012 13:10 7,2 C 90 % 1027,8 hPa 0,0 mm O 100 14,5 km/h (3 Bft)
14.11.2012 13:15 7,2 C 91 % 1027,8 hPa 0,0 mm O 90 12,9 km/h (3 Bft)
14.11.2012 13:20 7,1 C 90 % 1027,8 hPa 0,0 mm O-NO 72 14,5 km/h (3 Bft)
14.11.2012 13:25 7,0 C 91 % 1027,8 hPa 0,0 mm O 86 11,3 km/h (2 Bft)
14.11.2012 13:30 6,9 C 91 % 1027,9 hPa 0,0 mm O 91 12,9 km/h (3 Bft)
14.11.2012 13:35 6,9 C 91 % 1027,8 hPa 0,0 mm O-NO 76 12,9 km/h (3 Bft)
14.11.2012 13:40 6,9 C 91 % 1027,8 hPa 0,0 mm O 88 14,5 km/h (3 Bft)
14.11.2012 13:45 6,8 C 91 % 1027,8 hPa 0,0 mm O 80 14,5 km/h (3 Bft)
14.11.2012 13:50 6,8 C 91 % 1027,8 hPa 0,0 mm O-SO 103 16,1 km/h (3 Bft)
14.11.2012 13:55 6,7 C 91 % 1027,8 hPa 0,0 mm O 96 16,1 km/h (3 Bft)
14.11.2012 14:00 6,6 C 91 % 1027,6 hPa 0,0 mm SO 130 16,1 km/h (3 Bft)
14.11.2012 14:05 6,6 C 91 % 1027,6 hPa 0,0 mm O-SO 111 12,9 km/h (3 Bft)
14.11.2012 14:10 6,6 C 91 % 1027,6 hPa 0,0 mm O-SO 118 14,5 km/h (3 Bft)
14.11.2012 14:15 6,5 C 91 % 1027,6 hPa 0,0 mm O-SO 110 12,9 km/h (3 Bft)
14.11.2012 14:20 6,5 C 91 % 1027,6 hPa 0,0 mm O 80 12,9 km/h (3 Bft)
14.11.2012 14:25 6,4 C 91 % 1027,6 hPa 0,0 mm O 97 14,5 km/h (3 Bft)
14.11.2012 14:30 6,4 C 91 % 1027,5 hPa 0,0 mm O 82 12,9 km/h (3 Bft)
14.11.2012 14:35 6,4 C 91 % 1027,4 hPa 0,0 mm O 94 12,9 km/h (3 Bft)
14.11.2012 14:40 6,4 C 91 % 1027,4 hPa 0,0 mm O 81 12,9 km/h (3 Bft)
14.11.2012 14:45 6,4 C 91 % 1027,3 hPa 0,0 mm O 82 12,9 km/h (3 Bft)
14.11.2012 14:50 6,4 C 91 % 1027,4 hPa 0,0 mm N 11 11,3 km/h (2 Bft)
14.11.2012 14:55 6,3 C 91 % 1027,3 hPa 0,0 mm O 82 12,9 km/h (3 Bft)
14.11.2012 15:00 6,3 C 91 % 1027,4 hPa 0,0 mm O 96 12,9 km/h (3 Bft)
14.11.2012 15:05 6,2 C 91 % 1027,5 hPa 0,0 mm O-SO 103 12,9 km/h (3 Bft)
14.11.2012 15:10 6,2 C 92 % 1027,4 hPa 0,0 mm O 101 12,9 km/h (3 Bft)
14.11.2012 15:15 6,2 C 91 % 1027,4 hPa 0,0 mm O 87 14,5 km/h (3 Bft)
14.11.2012 15:20 6,2 C 92 % 1027,3 hPa 0,0 mm O 99 12,9 km/h (3 Bft)
14.11.2012 15:25 6,1 C 91 % 1027,4 hPa 0,0 mm O 93 12,9 km/h (3 Bft)
14.11.2012 15:30 6,1 C 92 % 1027,4 hPa 0,0 mm O 86 12,9 km/h (3 Bft)
14.11.2012 15:35 6,0 C 92 % 1027,3 hPa 0,0 mm O 85 11,3 km/h (2 Bft)
14.11.2012 15:40 5,9 C 92 % 1027,3 hPa 0,0 mm O-NO 78 14,5 km/h (3 Bft)
14.11.2012 15:45 5,9 C 92 % 1027,4 hPa 0,0 mm O 81 12,9 km/h (3 Bft)
14.11.2012 15:50 5,9 C 92 % 1027,4 hPa 0,0 mm O 83 12,9 km/h (3 Bft)
14.11.2012 15:55 5,9 C 92 % 1027,3 hPa 0,0 mm O 93 12,9 km/h (3 Bft)
14.11.2012 16:00 5,9 C 92 % 1027,3 hPa 0,0 mm NO 53 11,3 km/h (2 Bft)
14.11.2012 16:05 5,8 C 92 % 1027,3 hPa 0,0 mm O 88 11,3 km/h (2 Bft)
14.11.2012 16:10 5,8 C 92 % 1027,3 hPa 0,0 mm O-NO 76 12,9 km/h (3 Bft)
14.11.2012 16:15 5,8 C 92 % 1027,3 hPa 0,0 mm SO 127 12,9 km/h (3 Bft)
14.11.2012 16:20 5,7 C 92 % 1027,4 hPa 0,0 mm O-SO 109 12,9 km/h (3 Bft)
14.11.2012 16:25 5,7 C 92 % 1027,4 hPa 0,0 mm O-SO 105 11,3 km/h (2 Bft)
14.11.2012 16:30 5,6 C 92 % 1027,3 hPa 0,0 mm S-SO 148 12,9 km/h (3 Bft)
14.11.2012 16:35 5,6 C 92 % 1027,3 hPa 0,0 mm O 90 12,9 km/h (3 Bft)
14.11.2012 16:40 5,6 C 92 % 1027,3 hPa 0,0 mm SO 135 12,9 km/h (3 Bft)
14.11.2012 16:45 5,5 C 92 % 1027,3 hPa 0,0 mm O-SO 113 11,3 km/h (2 Bft)
14.11.2012 16:50 5,5 C 92 % 1027,3 hPa 0,0 mm O-SO 111 11,3 km/h (2 Bft)
14.11.2012 16:55 5,5 C 93 % 1027,3 hPa 0,0 mm O-SO 103 11,3 km/h (2 Bft)
14.11.2012 17:00 5,5 C 93 % 1027,2 hPa 0,0 mm O 97 11,3 km/h (2 Bft)
14.11.2012 17:05 5,5 C 93 % 1027,2 hPa 0,0 mm O-SO 108 11,3 km/h (2 Bft)
14.11.2012 17:10 5,4 C 93 % 1027,3 hPa 0,0 mm O 89 9,7 km/h (2 Bft)
14.11.2012 17:15 5,4 C 93 % 1027,2 hPa 0,0 mm O 81 8,0 km/h (2 Bft)
14.11.2012 17:20 5,4 C 93 % 1027,2 hPa 0,0 mm O 80 9,7 km/h (2 Bft)
14.11.2012 17:25 5,4 C 93 % 1027,2 hPa 0,0 mm O-SO 103 9,7 km/h (2 Bft)
14.11.2012 17:30 5,4 C 93 % 1027,2 hPa 0,0 mm O 95 11,3 km/h (2 Bft)
14.11.2012 17:35 5,4 C 93 % 1027,1 hPa 0,0 mm O-SO 120 9,7 km/h (2 Bft)
14.11.2012 17:40 5,3 C 93 % 1027,0 hPa 0,0 mm O-SO 120 9,7 km/h (2 Bft)
14.11.2012 17:45 5,3 C 93 % 1027,1 hPa 0,0 mm O-SO 109 8,0 km/h (2 Bft)
14.11.2012 17:50 5,3 C 93 % 1027,1 hPa 0,0 mm O-NO 77 9,7 km/h (2 Bft)
14.11.2012 17:55 5,3 C 93 % 1027,1 hPa 0,0 mm O 80 12,9 km/h (3 Bft)
14.11.2012 18:00 5,3 C 93 % 1027,1 hPa 0,0 mm O-NO 68 12,9 km/h (3 Bft)
14.11.2012 18:05 5,3 C 93 % 1027,1 hPa 0,0 mm O 82 9,7 km/h (2 Bft)
14.11.2012 18:10 5,3 C 93 % 1027,1 hPa 0,0 mm O 101 9,7 km/h (2 Bft)
14.11.2012 18:15 5,3 C 93 % 1027,0 hPa 0,0 mm O-SO 108 9,7 km/h (2 Bft)
14.11.2012 18:20 5,3 C 93 % 1027,1 hPa 0,0 mm O-NO 78 9,7 km/h (2 Bft)
14.11.2012 18:25 5,3 C 93 % 1027,1 hPa 0,0 mm O-NO 61 9,7 km/h (2 Bft)
14.11.2012 18:30 5,3 C 93 % 1027,0 hPa 0,0 mm SO 128 11,3 km/h (2 Bft)
14.11.2012 18:35 5,3 C 93 % 1026,9 hPa 0,0 mm O-NO 78 11,3 km/h (2 Bft)
14.11.2012 18:40 5,3 C 93 % 1026,9 hPa 0,0 mm O 93 8,0 km/h (2 Bft)
14.11.2012 18:45 5,3 C 93 % 1026,9 hPa 0,0 mm O 85 8,0 km/h (2 Bft)
14.11.2012 18:50 5,3 C 93 % 1026,9 hPa 0,0 mm O-SO 118 9,7 km/h (2 Bft)
14.11.2012 18:55 5,2 C 93 % 1026,9 hPa 0,0 mm O-SO 109 8,0 km/h (2 Bft)
14.11.2012 19:00 5,2 C 93 % 1026,9 hPa 0,0 mm O 86 4,8 km/h (1 Bft)
14.11.2012 19:05 5,2 C 93 % 1026,8 hPa 0,0 mm O 89 4,8 km/h (1 Bft)
14.11.2012 19:10 5,2 C 93 % 1026,8 hPa 0,0 mm O 81 8,0 km/h (2 Bft)
14.11.2012 19:15 5,2 C 93 % 1026,8 hPa 0,0 mm O 98 9,7 km/h (2 Bft)
14.11.2012 19:20 5,2 C 93 % 1026,8 hPa 0,0 mm O 92 9,7 km/h (2 Bft)
14.11.2012 19:25 5,2 C 93 % 1026,8 hPa 0,0 mm O 86 9,7 km/h (2 Bft)
14.11.2012 19:30 5,2 C 93 % 1026,7 hPa 0,0 mm O 82 4,8 km/h (1 Bft)
14.11.2012 19:35 5,2 C 93 % 1026,7 hPa 0,0 mm O 98 8,0 km/h (2 Bft)
14.11.2012 19:40 5,2 C 93 % 1026,6 hPa 0,0 mm O-SO 108 8,0 km/h (2 Bft)
14.11.2012 19:45 5,2 C 93 % 1026,5 hPa 0,0 mm SO 138 6,4 km/h (2 Bft)
14.11.2012 19:50 5,1 C 93 % 1026,5 hPa 0,0 mm O 93 9,7 km/h (2 Bft)
14.11.2012 19:55 5,1 C 93 % 1026,5 hPa 0,0 mm O 92 8,0 km/h (2 Bft)
14.11.2012 20:00 5,1 C 93 % 1026,5 hPa 0,0 mm SO 130 11,3 km/h (2 Bft)
14.11.2012 20:05 5,1 C 93 % 1026,5 hPa 0,0 mm O-SO 105 9,7 km/h (2 Bft)
14.11.2012 20:10 5,1 C 93 % 1026,5 hPa 0,0 mm O-SO 117 9,7 km/h (2 Bft)
14.11.2012 20:15 5,1 C 93 % 1026,5 hPa 0,0 mm O-SO 107 9,7 km/h (2 Bft)
14.11.2012 20:20 5,1 C 93 % 1026,5 hPa 0,0 mm O-SO 119 8,0 km/h (2 Bft)
14.11.2012 20:25 5,1 C 93 % 1026,5 hPa 0,0 mm O-NO 76 8,0 km/h (2 Bft)
14.11.2012 20:30 5,1 C 93 % 1026,5 hPa 0,0 mm O 80 9,7 km/h (2 Bft)
14.11.2012 20:35 5,1 C 93 % 1026,5 hPa 0,0 mm O-SO 119 8,0 km/h (2 Bft)
14.11.2012 20:40 5,1 C 93 % 1026,5 hPa 0,0 mm O 82 9,7 km/h (2 Bft)
14.11.2012 20:45 5,1 C 93 % 1026,5 hPa 0,0 mm O 101 9,7 km/h (2 Bft)
14.11.2012 20:50 5,1 C 93 % 1026,6 hPa 0,0 mm O-NO 75 8,0 km/h (2 Bft)
14.11.2012 20:55 5,1 C 93 % 1026,6 hPa 0,0 mm O 84 8,0 km/h (2 Bft)
14.11.2012 21:00 5,1 C 93 % 1026,6 hPa 0,0 mm SO 128 8,0 km/h (2 Bft)
14.11.2012 21:05 5,1 C 93 % 1026,6 hPa 0,0 mm O-SO 120 6,4 km/h (2 Bft)
14.11.2012 21:10 5,1 C 93 % 1026,5 hPa 0,0 mm O-SO 121 6,4 km/h (2 Bft)
14.11.2012 21:15 5,0 C 93 % 1026,5 hPa 0,0 mm SO 127 6,4 km/h (2 Bft)
14.11.2012 21:20 5,0 C 93 % 1026,5 hPa 0,0 mm O 81 8,0 km/h (2 Bft)
14.11.2012 21:25 5,0 C 93 % 1026,4 hPa 0,0 mm O 92 8,0 km/h (2 Bft)
14.11.2012 21:30 4,9 C 93 % 1026,4 hPa 0,0 mm O-NO 75 8,0 km/h (2 Bft)
14.11.2012 21:35 4,9 C 93 % 1026,5 hPa 0,0 mm O 99 8,0 km/h (2 Bft)
14.11.2012 21:40 4,9 C 93 % 1026,5 hPa 0,0 mm O-SO 107 8,0 km/h (2 Bft)
14.11.2012 21:45 4,9 C 93 % 1026,5 hPa 0,0 mm O-SO 119 8,0 km/h (2 Bft)
14.11.2012 21:50 4,9 C 93 % 1026,5 hPa 0,0 mm O-SO 115 9,7 km/h (2 Bft)
14.11.2012 21:55 4,9 C 93 % 1026,4 hPa 0,0 mm O-SO 116 6,4 km/h (2 Bft)
14.11.2012 22:00 4,9 C 93 % 1026,4 hPa 0,0 mm SO 126 8,0 km/h (2 Bft)
14.11.2012 22:05 4,9 C 93 % 1026,4 hPa 0,0 mm O-SO 106 8,0 km/h (2 Bft)
14.11.2012 22:10 4,9 C 93 % 1026,3 hPa 0,0 mm O 89 8,0 km/h (2 Bft)
14.11.2012 22:15 4,9 C 93 % 1026,3 hPa 0,0 mm O-SO 119 8,0 km/h (2 Bft)
14.11.2012 22:20 4,9 C 93 % 1026,3 hPa 0,0 mm O 92 4,8 km/h (1 Bft)
14.11.2012 22:25 4,9 C 93 % 1026,2 hPa 0,0 mm O 100 8,0 km/h (2 Bft)
14.11.2012 22:30 4,9 C 93 % 1026,3 hPa 0,0 mm O 84 9,7 km/h (2 Bft)
14.11.2012 22:35 4,8 C 93 % 1026,2 hPa 0,0 mm SO 136 8,0 km/h (2 Bft)
14.11.2012 22:40 4,8 C 93 % 1026,2 hPa 0,0 mm O 93 8,0 km/h (2 Bft)
14.11.2012 22:45 4,8 C 93 % 1026,1 hPa 0,0 mm O-SO 119 6,4 km/h (2 Bft)
14.11.2012 22:50 4,7 C 93 % 1026,1 hPa 0,0 mm O-SO 111 6,4 km/h (2 Bft)
14.11.2012 22:55 4,7 C 93 % 1026,2 hPa 0,0 mm S-SO 158 9,7 km/h (2 Bft)
14.11.2012 23:00 4,7 C 93 % 1026,2 hPa 0,0 mm SO 134 4,8 km/h (1 Bft)
14.11.2012 23:05 4,7 C 93 % 1026,2 hPa 0,0 mm O 82 4,8 km/h (1 Bft)
14.11.2012 23:10 4,7 C 93 % 1026,2 hPa 0,0 mm O-SO 118 4,8 km/h (1 Bft)
14.11.2012 23:15 4,7 C 93 % 1026,1 hPa 0,0 mm O 84 4,8 km/h (1 Bft)
14.11.2012 23:20 4,7 C 93 % 1026,1 hPa 0,0 mm O 86 4,8 km/h (1 Bft)
14.11.2012 23:25 4,7 C 93 % 1026,1 hPa 0,0 mm O 86 1,6 km/h (1 Bft)
14.11.2012 23:30 4,7 C 93 % 1026,1 hPa 0,0 mm SO 138 4,8 km/h (1 Bft)
14.11.2012 23:35 4,7 C 93 % 1026,1 hPa 0,0 mm O 86 4,8 km/h (1 Bft)
14.11.2012 23:40 4,7 C 93 % 1026,1 hPa 0,0 mm O-NO 72 3,2 km/h (1 Bft)
14.11.2012 23:45 4,7 C 93 % 1026,1 hPa 0,0 mm O-NO 73 3,2 km/h (1 Bft)
14.11.2012 23:50 4,7 C 93 % 1026,0 hPa 0,0 mm O-NO 63 4,8 km/h (1 Bft)
14.11.2012 23:55 4,7 C 93 % 1026,1 hPa 0,0 mm O-SO 102 8,0 km/h (2 Bft)
_ Min-Zeit 22:50 11:55 23:50 - - - 06:10
Minimum _ 4,7 C 90 % 1026,0 hPa - - - 1,6 km/h (1 Bft)
_ Max-Zeit 12:55 00:00 00:00 10:40 - - 13:50
Maximum _ 7,3 C 94 % 1030,8 hPa 0,2 mm - - 16,1 km/h
O-SO (3 Bft)
Durchschnitt _ 6,1 C 93 % 1028,4 hPa #0,2 mm O - 9,4 km/h (2 Bft)